Grand Canyon, AZ

2:42 PM MST on November 17, 2017 (GMT -0700)
Grand Canyon National Park

Weather History for KGCN - December, 2012

Change the Weather History Date:

Monday, December 3, 2012

  Actual Average Record
Temperature  
Mean Temperature 39 °F -  
Max Temperature 53 °F 44 °F 61 °F (1979)
Min Temperature 23 °F 15 °F 6 °F (1978)
Degree Days  
Heating Degree Days 26    
Moisture  
Dew Point 32 °F    
Average Humidity 75    
Maximum Humidity 89    
Minimum Humidity 45    
Precipitation  
Precipitation 0.00 in - - ()
Sea Level Pressure  
Sea Level Pressure 30.16 in    
Wind  
Wind Speed 4 mph (SW)    
Max Wind Speed 10 mph    
Max Gust Speed 16 mph    
Visibility 10 miles    
Events      
Averages and records for this station are not official NWS values.
T = Trace of Precipitation, MM = Missing Value Source: NWS Daily Summary

Daily Weather History Graph

Daily Weather History Graph

Search for Another Location

Airport or City:

Trip Planner

Search our weather history database for the weather conditions in past years. The results will help you decide how hot, cold, wet, or windy it might be!

Date:

Astronomy

Dec. 03, 2012 Rise Set
Actual Time 7:22 AM MST 5:14 PM MST
Civil Twilight 6:54 AM MST 5:42 PM MST
Nautical Twilight 6:22 AM MST 6:14 PM MST
Astronomical Twilight 5:51 AM MST 6:45 PM MST
Moon 9:59 PM MST (12/3) 10:52 AM MST (12/3)
Length of Visible Light 10h 47m
Length of Day
9h 51m
Waning Gibbous, 77% of the Moon is Illuminated
Dec 3
Waning Gibbous
Dec 6
Last Quarter
Dec 13
New
Dec 19
First Quarter
Dec 28
Full

Hourly Weather History & Observations

Time (MST) Temp. Windchill Dew Point Humidity Pressure Visibility Wind Dir Wind Speed Gust Speed Precip Events Conditions
12:44 AM 35.6 °F 30.7 °F 32.0 °F 87% 30.13 in 10.0 mi SSW 5.8 mph - N/A   Mostly Cloudy
12:54 AM 36.0 °F 32.1 °F 32.0 °F 86% 30.01 in 10.0 mi WSW 4.6 mph - N/A   Scattered Clouds
1:54 AM 39.0 °F 36.8 °F 36.0 °F 89% 30.01 in 10.0 mi SW 3.5 mph - N/A   Overcast
2:54 AM 39.9 °F 35.1 °F 36.0 °F 86% 30.03 in 10.0 mi SW 6.9 mph - N/A   Overcast
3:25 AM 41.0 °F 35.8 °F 35.6 °F 81% 30.17 in 10.0 mi SW 8.1 mph - N/A   Overcast
3:41 AM 41.0 °F 35.2 °F 35.6 °F 81% 30.17 in 10.0 mi SW 9.2 mph - N/A   Overcast
3:54 AM 39.9 °F 33.9 °F 36.0 °F 86% 30.05 in 10.0 mi SW 9.2 mph - N/A   Overcast
4:46 AM 39.2 °F 37.0 °F 35.6 °F 87% 30.16 in 10.0 mi SSW 3.5 mph - N/A   Overcast
4:54 AM 39.9 °F 37.8 °F 36.0 °F 86% 30.04 in 10.0 mi SSW 3.5 mph - N/A   Overcast
6:54 AM 41.0 °F - 36.0 °F 82% 30.08 in 10.0 mi Calm Calm - N/A   Overcast
7:07 AM 39.2 °F - 35.6 °F 87% 30.19 in 10.0 mi Calm Calm - N/A   Overcast
7:54 AM 39.9 °F - 36.0 °F 86% 30.10 in 10.0 mi Calm Calm - N/A   Overcast
8:20 AM 39.2 °F - 35.6 °F 87% 30.20 in 10.0 mi Calm Calm - N/A   Partly Cloudy
8:54 AM 41.0 °F - 37.0 °F 86% 30.13 in 10.0 mi Calm Calm - N/A   Clear
9:21 AM 44.6 °F 42.2 °F 37.4 °F 76% 30.24 in 10.0 mi SW 4.6 mph - N/A   Scattered Clouds
9:30 AM 44.6 °F 42.2 °F 37.4 °F 76% 30.25 in 10.0 mi SW 4.6 mph - N/A   Mostly Cloudy
9:41 AM 44.6 °F 40.7 °F 37.4 °F 76% 30.25 in 10.0 mi SW 6.9 mph - N/A   Overcast
9:54 AM 44.1 °F 42.5 °F 37.0 °F 76% 30.15 in 10.0 mi West 3.5 mph - N/A   Mostly Cloudy
10:06 AM 44.6 °F - 37.4 °F 76% 30.25 in 10.0 mi Calm Calm - N/A   Mostly Cloudy
10:54 AM 46.9 °F - 36.0 °F 66% 30.13 in 10.0 mi Calm Calm - N/A   Mostly Cloudy
11:11 AM 46.4 °F - 35.6 °F 66% 30.23 in 10.0 mi Calm Calm - N/A   Scattered Clouds
11:54 AM 48.9 °F - 35.1 °F 59% 30.12 in 10.0 mi SSW 5.8 mph - N/A   Clear
12:54 PM 51.1 °F - 33.1 °F 50% 30.10 in 10.0 mi Variable 3.5 mph - N/A   Clear
1:54 PM 53.1 °F - 32.0 °F 45% 30.09 in 10.0 mi SSW 6.9 mph 16.1 mph N/A   Clear
2:54 PM 53.1 °F - 32.0 °F 45% 30.07 in 10.0 mi SW 10.4 mph - N/A   Clear
3:54 PM 52.0 °F - 30.9 °F 45% 30.09 in 10.0 mi SW 9.2 mph - N/A   Clear
4:54 PM 50.0 °F - 32.0 °F 50% 30.12 in 10.0 mi West 3.5 mph - N/A   Partly Cloudy
5:54 PM 35.1 °F - 24.1 °F 64% 30.19 in 10.0 mi Calm Calm - N/A   Clear
6:54 PM 30.9 °F 27.5 °F 25.0 °F 79% 30.23 in 10.0 mi ENE 3.5 mph - N/A   Clear
7:54 PM 28.0 °F 24.2 °F 21.9 °F 78% 30.27 in 10.0 mi ENE 3.5 mph - N/A   Clear
8:54 PM 27.0 °F - 21.9 °F 81% 30.28 in 10.0 mi Calm Calm - N/A   Clear
9:54 PM 26.1 °F - 19.9 °F 78% 30.29 in 10.0 mi Calm Calm - N/A   Clear
10:54 PM 25.0 °F - 21.0 °F 85% 30.29 in 10.0 mi Calm Calm - N/A   Clear
11:54 PM 23.0 °F - 19.0 °F 85% 30.30 in 10.0 mi Calm Calm - N/A   Clear